Location: Hebron
(33.0265°N, 96.8636°W)
Time: 03:28:07
(UTC+00:00)

Okean 1 - Pass Details

Date: 10 July 2022
Orbit: 532 x 553 km, 82.5° (Epoch: 13 August)

Event Time Altitude Azimuth Distance (km) Brightness Sun altitude
Rises 08:12:08 0° 9° (N) 2,681 7.9 -29.9°
Reaches altitude 10° 08:14:38 10° 25° (NNE) 1,785 6.8 -29.7°
Enters shadow 08:17:25 22° 70° (ENE) 1,182 5.4 -29.4°
